Franklin, PA

1:51 AM EST on December 17, 2017 (GMT -0500)
Venango Regional

Weather History for KFKL - October, 2013

Change the Weather History Date:

Monday, October 7, 2013

  Actual Average Record
Temperature  
Mean Temperature 58 °F -  
Max Temperature 69 °F 64 °F 87 °F (1946)
Min Temperature 48 °F 42 °F 25 °F (1935)
Degree Days  
Heating Degree Days 6    
Growing Degree Days 8 (Base 50)    
Moisture  
Dew Point 46 °F    
Average Humidity 72    
Maximum Humidity 94    
Minimum Humidity 58    
Precipitation  
Precipitation 0.66 in - - ()
Sea Level Pressure  
Sea Level Pressure 29.89 in    
Wind  
Wind Speed 12 mph (SW)    
Max Wind Speed 18 mph    
Max Gust Speed 25 mph    
Visibility 10 miles    
Events      
Averages and records for this station are not official NWS values.
T = Trace of Precipitation, MM = Missing Value Source: NWS Daily Summary

Daily Weather History Graph

Daily Weather History Graph

Search for Another Location

Airport or City:

Trip Planner

Search our weather history database for the weather conditions in past years. The results will help you decide how hot, cold, wet, or windy it might be!

Date:

Astronomy

Oct. 07, 2013 Rise Set
Actual Time 7:22 AM EDT 6:50 PM EDT
Civil Twilight 6:55 AM EDT 7:18 PM EDT
Nautical Twilight 6:23 AM EDT 7:50 PM EDT
Astronomical Twilight 5:50 AM EDT 8:22 PM EDT
Moon 10:12 AM EDT (10/7) 8:32 PM EDT (10/7)
Length of Visible Light 12h 23m
Length of Day
11h 28m
Waxing Crescent, 8% of the Moon is Illuminated
Oct 7
Waxing Crescent
Oct 11
First Quarter
Oct 18
Full
Oct 26
Last Quarter
Nov 3
New

Hourly Weather History & Observations

Time (EDT) Temp. Dew Point Humidity Pressure Visibility Wind Dir Wind Speed Gust Speed Precip Events Conditions
12:15 AM 69.8 °F 55.4 °F 60% 29.78 in 10.0 mi SSE 15.0 mph 21.9 mph N/A   Clear
12:35 AM 69.8 °F 55.4 °F 60% 29.76 in 10.0 mi SSE 13.8 mph 18.4 mph N/A   Clear
12:55 AM 69.8 °F 55.4 °F 60% 29.76 in 10.0 mi SSE 13.8 mph 18.4 mph N/A   Clear
1:15 AM 69.8 °F 55.4 °F 60% 29.75 in 10.0 mi SSE 15.0 mph - N/A   Clear
1:35 AM 69.8 °F 55.4 °F 60% 29.76 in 10.0 mi South 12.7 mph - N/A   Mostly Cloudy
1:55 AM 68.0 °F 55.4 °F 64% 29.75 in 10.0 mi South 12.7 mph 17.3 mph N/A   Scattered Clouds
2:15 AM 66.2 °F 55.4 °F 68% 29.74 in 10.0 mi SSE 11.5 mph - N/A   Clear
2:35 AM 68.0 °F 57.2 °F 68% 29.74 in 10.0 mi South 10.4 mph - N/A   Mostly Cloudy
2:55 AM 66.2 °F 57.2 °F 73% 29.74 in 10.0 mi WSW 11.5 mph - N/A   Overcast
3:15 AM 64.4 °F 57.2 °F 77% 29.76 in 10.0 mi SW 15.0 mph 23.0 mph N/A   Overcast
3:35 AM 60.8 °F 53.6 °F 77% 29.75 in 10.0 mi WSW 13.8 mph 20.7 mph N/A   Overcast
3:55 AM 60.8 °F 51.8 °F 72% 29.76 in 10.0 mi WSW 9.2 mph - N/A   Overcast
4:15 AM 57.2 °F 51.8 °F 82% 29.76 in 10.0 mi WSW 11.5 mph 16.1 mph N/A   Overcast
4:35 AM 55.4 °F 51.8 °F 88% 29.78 in 10.0 mi WSW 10.4 mph 16.1 mph 0.03 in   Overcast
4:55 AM 55.4 °F 51.8 °F 88% 29.78 in 10.0 mi WSW 9.2 mph - 0.07 in   Overcast
5:15 AM 55.4 °F 51.8 °F 88% 29.78 in 10.0 mi SW 6.9 mph - 0.13 in   Overcast
5:35 AM 55.4 °F 51.8 °F 88% 29.77 in 10.0 mi WSW 6.9 mph - 0.18 in   Overcast
5:55 AM 53.6 °F 51.8 °F 94% 29.78 in 10.0 mi WSW 8.1 mph - 0.27 in   Mostly Cloudy
6:15 AM 53.6 °F 51.8 °F 94% 29.78 in 10.0 mi SW 5.8 mph - 0.03 in   Mostly Cloudy
6:35 AM 53.6 °F 50.0 °F 88% 29.77 in 9.0 mi SW 8.1 mph - 0.05 in   Overcast
6:55 AM 53.6 °F 50.0 °F 88% 29.80 in 10.0 mi SSW 11.5 mph - 0.10 in   Overcast
7:15 AM 51.8 °F 48.2 °F 88% 29.80 in 10.0 mi SW 9.2 mph 16.1 mph 0.04 in   Overcast
7:35 AM 51.8 °F 48.2 °F 88% 29.79 in 5.0 mi SSW 9.2 mph - 0.05 in   Overcast
7:55 AM 51.8 °F 48.2 °F 88% 29.80 in 7.0 mi SW 11.5 mph - 0.10 in   Overcast
8:15 AM 51.8 °F 48.2 °F 88% 29.81 in 8.0 mi SW 8.1 mph 17.3 mph 0.03 in   Overcast
8:35 AM 51.8 °F 48.2 °F 88% 29.80 in 10.0 mi SSW 5.8 mph - 0.06 in   Overcast
8:55 AM 51.8 °F 48.2 °F 88% 29.82 in 5.0 mi SSW 10.4 mph - 0.07 in   Overcast
9:15 AM 51.8 °F 48.2 °F 88% 29.83 in 9.0 mi SSW 12.7 mph 16.1 mph 0.05 in   Overcast
9:35 AM 50.0 °F 46.4 °F 87% 29.84 in 10.0 mi West 12.7 mph 21.9 mph 0.05 in   Overcast
9:55 AM 48.2 °F 44.6 °F 87% 29.85 in 9.0 mi WSW 12.7 mph 18.4 mph 0.05 in   Overcast
10:15 AM 48.2 °F 42.8 °F 82% 29.86 in 10.0 mi WSW 10.4 mph 20.7 mph N/A   Overcast
10:35 AM 48.2 °F 42.8 °F 82% 29.85 in 10.0 mi WSW 9.2 mph - N/A   Overcast
10:55 AM 48.2 °F 42.8 °F 82% 29.86 in 10.0 mi WSW 15.0 mph - N/A   Scattered Clouds
11:15 AM 50.0 °F 42.8 °F 76% 29.86 in 10.0 mi WSW 10.4 mph 18.4 mph N/A   Clear
11:35 AM 53.6 °F 42.8 °F 67% 29.86 in 10.0 mi WSW 16.1 mph 23.0 mph N/A   Partly Cloudy
11:55 AM 53.6 °F 42.8 °F 67% 29.87 in 10.0 mi SW 15.0 mph 23.0 mph N/A   Mostly Cloudy
12:15 PM 51.8 °F 41.0 °F 67% 29.89 in 10.0 mi WSW 12.7 mph 20.7 mph N/A   Overcast
12:35 PM 51.8 °F 39.2 °F 62% 29.89 in 10.0 mi SW 16.1 mph 20.7 mph N/A   Overcast
12:55 PM 51.8 °F 39.2 °F 62% 29.89 in 10.0 mi WSW 16.1 mph 21.9 mph N/A   Overcast
1:15 PM 51.8 °F 39.2 °F 62% 29.89 in 10.0 mi West 5.8 mph 16.1 mph N/A   Overcast
1:35 PM 51.8 °F 39.2 °F 62% 29.88 in 10.0 mi SW 10.4 mph - N/A   Overcast
1:55 PM 55.4 °F 42.8 °F 63% 29.87 in 10.0 mi WSW 8.1 mph 17.3 mph N/A   Mostly Cloudy
2:15 PM 53.6 °F 39.2 °F 58% 29.88 in 10.0 mi WSW 12.7 mph 19.6 mph N/A   Overcast
2:35 PM 53.6 °F 39.2 °F 58% 29.89 in 10.0 mi WSW 12.7 mph 24.2 mph N/A   Overcast
2:55 PM 53.6 °F 39.2 °F 58% 29.90 in 10.0 mi SW 13.8 mph 23.0 mph N/A   Overcast
3:15 PM 53.6 °F 41.0 °F 62% 29.91 in 10.0 mi WSW 15.0 mph 21.9 mph N/A   Overcast
3:35 PM 53.6 °F 39.2 °F 58% 29.91 in 10.0 mi WSW 12.7 mph 25.3 mph N/A   Overcast
3:55 PM 53.6 °F 39.2 °F 58% 29.93 in 10.0 mi WSW 18.4 mph 24.2 mph N/A   Overcast
4:15 PM 53.6 °F 42.8 °F 67% 29.93 in 10.0 mi SW 12.7 mph 20.7 mph N/A   Overcast
4:35 PM 55.4 °F 41.0 °F 58% 29.94 in 10.0 mi SW 11.5 mph 20.7 mph N/A   Overcast
4:55 PM 53.6 °F 39.2 °F 58% 29.95 in 10.0 mi WSW 13.8 mph 23.0 mph N/A   Mostly Cloudy
5:15 PM 53.6 °F 41.0 °F 62% 29.95 in 10.0 mi WSW 11.5 mph 17.3 mph N/A   Overcast
5:35 PM 53.6 °F 39.2 °F 58% 29.96 in 10.0 mi SW 11.5 mph 18.4 mph N/A   Mostly Cloudy
5:55 PM 53.6 °F 39.2 °F 58% 29.98 in 10.0 mi WSW 10.4 mph - N/A   Mostly Cloudy
6:15 PM 53.6 °F 39.2 °F 58% 29.98 in 10.0 mi SW 10.4 mph 16.1 mph N/A   Overcast
6:35 PM 51.8 °F 39.2 °F 62% 29.99 in 10.0 mi SSW 6.9 mph - N/A   Mostly Cloudy
6:55 PM 51.8 °F 39.2 °F 62% 30.00 in 10.0 mi SSW 5.8 mph - N/A   Overcast
7:15 PM 51.8 °F 41.0 °F 67% 30.01 in 10.0 mi SSW 9.2 mph - N/A   Overcast
7:35 PM 51.8 °F 41.0 °F 67% 30.02 in 10.0 mi SSW 6.9 mph - N/A   Overcast
7:55 PM 51.8 °F 41.0 °F 67% 30.03 in 10.0 mi SSW 6.9 mph - N/A   Overcast
8:15 PM 50.0 °F 41.0 °F 71% 30.03 in 10.0 mi SSW 8.1 mph - N/A   Overcast
8:35 PM 50.0 °F 41.0 °F 71% 30.04 in 10.0 mi SSW 10.4 mph - N/A   Mostly Cloudy
8:55 PM 51.8 °F 41.0 °F 67% 30.05 in 10.0 mi SSW 6.9 mph - N/A   Overcast
9:15 PM 51.8 °F 42.8 °F 71% 30.06 in 10.0 mi SSW 10.4 mph - N/A   Overcast
9:35 PM 51.8 °F 42.8 °F 71% 30.07 in 10.0 mi SSW 8.1 mph - N/A   Overcast
9:55 PM 50.0 °F 42.8 °F 76% 30.08 in 10.0 mi SSW 9.2 mph - N/A   Mostly Cloudy
10:15 PM 50.0 °F 42.8 °F 76% 30.09 in 10.0 mi SSW 9.2 mph - N/A   Mostly Cloudy
10:35 PM 50.0 °F 42.8 °F 76% 30.09 in 10.0 mi SW 9.2 mph - N/A   Overcast
10:55 PM 50.0 °F 42.8 °F 76% 30.10 in 10.0 mi SSW 8.1 mph - N/A   Overcast
11:15 PM 50.0 °F 42.8 °F 76% 30.11 in 10.0 mi WSW 11.5 mph - N/A   Overcast
11:35 PM 50.0 °F 44.6 °F 82% 30.13 in 10.0 mi WSW 9.2 mph - N/A   Overcast
11:55 PM 50.0 °F 44.6 °F 82% 30.13 in 10.0 mi WSW 8.1 mph - N/A   Mostly Cloudy